Wetbulb
68.35 68.52 68.96 69.80 71.12 72.42 73.32 73.68 74.13 74.25 74.55 74.77 75.19 75.58 75.46 75.19 75.22 75.16 73.99 72.62 72.67 72.27 72.00 72.43 74.40 74.95 75.17 75.65 76.34 75.51 75.79 75.71 75.80
68.22 68.97 69.75 70.88 72.11 73.07 73.39 73.65 74.17 73.93 74.93 75.15 75.52 75.66 75.60 75.38 75.83 74.33 74.80 73.47 73.53 73.05 75.08 75.08 74.53 74.50 74.56 74.88 74.83 74.99 75.30 75.03 74.21
69.23 69.35 70.01 70.79 72.19 72.97 74.46 74.67 74.56 75.30 75.85 75.58 75.66 76.13 75.80 75.70 75.09 75.00 75.29 74.49 73.60 74.74 74.88 75.40 74.61 74.01 74.05 73.92 74.02 73.60 73.90 73.74 73.39
69.20 69.27 70.03 70.69 71.55 73.08 74.53 75.17 75.38 75.67 76.00 76.38 76.08 76.39 76.10 75.58 74.48 75.08 75.16 74.15 74.99 75.44 74.06 74.67 73.76 73.55 73.74 73.33 72.85 72.65 72.36 72.24 72.58
70.01 70.38 70.28 71.40 72.90 73.88 74.60 74.96 75.83 76.44 76.90 75.83 75.16 74.85 74.58 73.43 75.76 75.49 74.81 74.41 74.41 73.96 73.80 73.91 72.37 72.47 72.13 72.35 71.19 71.47 71.46 71.40 71.83
69.50 70.37 70.33 71.19 72.49 73.29 74.36 75.34 75.84 75.97 76.02 75.60 75.47 75.27 74.93 74.43 74.26 73.89 73.39 73.47 73.48 73.53 73.24 72.26 72.05 72.02 71.84 71.60 71.41 70.59 70.12 69.49 69.69
70.19 70.76 70.90 71.09 72.79 73.04 74.79 74.97 74.76 74.75 74.28 74.48 74.16 73.51 73.21 73.09 72.90 72.24 72.54 72.84 72.79 72.23 72.49 71.56 71.17 70.89 70.53 70.06 69.43 69.46 69.06 68.73 67.87
69.61 70.38 71.04 71.74 72.42 71.41 73.04 74.08 73.99 73.62 73.09 73.08 73.39 73.20 72.95 72.67 72.42 72.45 71.62 71.64 71.68 71.24 70.63 70.15 69.73 69.13 69.00 69.25 68.07 65.32 66.89 66.14 65.16
68.77 70.56 71.23 71.80 72.33 72.93 73.34 72.71 72.11 72.02 72.24 72.79 73.30 72.63 71.76 71.52 71.58 71.46 70.81 70.72 70.20 69.96 69.66 69.56 69.12 67.87 67.03 65.36 61.75 59.75 60.26 61.65 60.61
68.32 70.80 71.52 71.99 72.59 73.46 73.19 72.22 71.95 71.50 72.10 72.64 72.51 71.98 71.62 71.27 71.41 70.90 70.22 69.69 68.57 67.56 66.90 66.42 65.55 64.54 64.22 63.51 61.96 58.51 58.07 58.07 60.06
68.88 70.98 72.06 73.23 73.95 73.93 73.67 72.93 71.98 72.36 72.44 72.43 71.96 71.56 71.48 71.05 70.39 69.33 68.56 67.66 66.26 65.73 65.38 64.62 63.95 62.69 62.86 63.11 61.93 58.39 57.39 56.83 61.96
70.05 71.81 73.53 74.61 75.18 74.82 73.93 72.89 72.66 72.12 71.55 70.68 71.11 70.89 70.53 70.27 69.80 68.68 67.57 66.14 64.51 63.85 63.19 62.41 62.26 62.54 61.97 62.22 63.00 56.77 58.19 58.09 60.74
70.01 72.68 74.44 74.91 75.27 74.82 73.48 72.94 72.60 71.36 69.41 69.63 69.36 69.38 69.06 68.98 68.61 68.10 66.26 64.55 63.08 62.52 62.46 61.99 62.44 61.78 62.31 54.16 61.74 54.37 56.99 58.71 59.45
71.34 73.15 74.64 75.43 74.83 73.42 72.63 72.83 72.29 71.42 70.21 68.83 69.89 70.12 69.38 68.90 68.38 66.28 64.29 63.07 62.68 62.37 62.32 62.09 62.84 62.07 62.33 61.14 59.79 59.89 53.90 53.39 58.51
71.27 72.82 74.32 74.49 73.39 72.73 72.83 72.98 72.39 71.37 69.63 70.57 70.25 69.50 68.67 67.16 65.61 62.71 61.98 62.68 62.47 62.70 62.34 61.56 61.19 60.98 60.13 59.73 62.43 53.69 52.70 51.78 51.87
72.65 73.65 74.04 74.41 73.57 72.96 72.93 73.15 73.04 70.00 69.12 69.34 68.47 67.49 66.00 64.77 63.48 62.31 62.72 62.42 62.05 60.87 61.42 60.02 59.77 58.53 58.05 59.50 60.70 60.00 52.34 51.81 51.50
73.12 74.23 73.96 74.49 73.68 72.54 71.78 72.80 71.86 69.18 68.46 68.39 67.01 65.06 63.81 62.90 61.78 61.49 61.97 61.05 60.38 59.72 58.87 59.20 59.06 58.31 56.32 56.53 57.61 58.15 57.41 56.50 56.19
72.64 74.28 74.62 74.29 72.70 70.05 70.31 70.21 67.51 67.24 66.83 65.59 65.52 63.87 62.78 61.30 60.38 60.69 60.32 61.15 59.70 59.17 59.42 55.78 56.29 56.41 55.83 54.74 54.05 54.13 50.37 49.95 53.79
72.51 71.14 71.72 70.49 68.14 67.00 65.60 67.98 67.78 66.40 65.97 65.67 63.61 61.85 59.86 59.06 58.68 58.72 58.46 57.68 56.43 46.96 48.88 48.07 48.00 47.02 49.78 55.31 50.46 47.07 45.58 43.55 43.03
64.75 67.93 66.93 66.10 65.92 67.15 64.82 63.84 63.42 65.28 65.93 65.00 62.63 60.08 59.41 58.00 57.26 58.15 57.65 57.44 57.51 56.49 51.23 47.54 46.41 45.74 45.25 44.98 45.05 43.80 42.79 41.91 42.08
MSLP
1001.41 1001.79 1002.23 1002.88 1003.43 1003.93 1004.67 1005.29 1006.08 1007.01 1008.02 1008.56 1008.93 1009.26 1009.98 1010.80 1011.39 1011.55 1011.89 1012.22 1012.00 1011.97 1012.21 1012.01 1011.86 1011.82 1011.77 1011.65 1011.83 1012.03 1011.89 1012.05 1012.18
1001.27 1002.05 1002.73 1003.25 1003.63 1004.19 1004.73 1005.17 1005.90 1006.80 1007.58 1008.11 1008.66 1009.23 1009.99 1010.81 1011.29 1011.67 1011.89 1012.11 1011.99 1011.85 1011.93 1011.88 1012.09 1012.22 1012.27 1012.20 1012.17 1012.18 1011.91 1011.81 1011.87
1001.41 1002.44 1003.07 1003.44 1003.85 1004.46 1004.68 1004.93 1005.64 1006.35 1007.33 1008.05 1008.77 1009.18 1009.98 1010.45 1010.99 1011.52 1011.86 1011.82 1011.93 1012.17 1012.29 1012.37 1012.33 1012.39 1012.36 1012.60 1012.69 1012.57 1012.35 1012.17 1012.37
1001.42 1002.33 1003.16 1003.81 1004.33 1004.83 1005.10 1005.49 1005.91 1006.52 1007.46 1008.29 1008.97 1009.53 1010.05 1010.62 1011.42 1011.59 1011.53 1011.65 1012.02 1012.17 1012.44 1012.63 1012.85 1012.80 1012.78 1012.65 1012.66 1012.89 1012.85 1012.78 1012.64
1001.45 1002.48 1003.38 1004.00 1004.66 1005.34 1005.85 1006.39 1006.85 1007.42 1008.21 1008.88 1009.61 1010.22 1010.62 1011.20 1011.10 1011.21 1011.46 1011.89 1012.14 1012.58 1012.57 1012.95 1013.32 1013.32 1013.31 1013.18 1013.38 1013.31 1013.00 1012.98 1012.99
1001.65 1002.63 1003.49 1004.12 1004.85 1005.84 1006.39 1006.75 1007.30 1008.01 1008.63 1009.29 1010.00 1010.46 1010.59 1010.75 1010.90 1011.15 1011.58 1012.12 1012.52 1012.93 1013.17 1013.50 1013.43 1013.44 1013.49 1013.48 1013.54 1013.60 1013.67 1013.73 1013.60
1001.32 1002.49 1003.27 1004.02 1004.98 1006.14 1006.49 1007.21 1007.93 1008.62 1009.20 1009.64 1010.10 1010.46 1010.72 1010.93 1011.39 1012.14 1012.27 1012.54 1012.78 1013.06 1013.24 1013.37 1013.64 1013.77 1013.86 1014.06 1014.09 1014.09 1014.11 1014.02 1014.03
1001.06 1002.04 1003.04 1003.90 1005.08 1006.47 1007.09 1007.67 1008.32 1008.99 1009.52 1009.87 1010.28 1010.70 1011.10 1011.40 1011.80 1012.29 1012.72 1013.17 1013.49 1013.62 1013.76 1014.02 1014.07 1014.15 1014.32 1014.27 1014.06 1014.27 1014.42 1014.41 1014.55
1000.61 1001.63 1002.60 1003.68 1005.08 1006.23 1006.78 1007.54 1008.23 1008.91 1009.39 1009.83 1010.46 1010.89 1011.30 1011.85 1012.36 1012.75 1013.11 1013.46 1013.74 1014.03 1014.05 1014.08 1014.29 1014.49 1014.38 1014.45 1014.52 1015.41 1015.11 1014.80 1014.85
999.86 1000.79 1001.98 1003.29 1004.34 1005.25 1006.21 1007.02 1007.80 1008.52 1009.34 1010.06 1010.59 1010.91 1011.43 1012.01 1012.67 1013.14 1013.42 1013.68 1013.93 1014.13 1014.24 1014.50 1014.46 1014.55 1014.58 1014.81 1015.34 1015.75 1015.70 1015.44 1014.93
999.20 1000.13 1001.27 1002.60 1003.54 1004.71 1005.89 1006.83 1007.77 1008.59 1009.47 1010.10 1010.78 1011.32 1011.71 1012.23 1012.59 1012.93 1013.40 1013.98 1014.29 1014.46 1014.43 1014.51 1014.61 1014.88 1014.76 1014.84 1015.49 1016.05 1016.07 1015.85 1015.29
998.67 999.74 1000.72 1001.87 1003.01 1004.14 1005.54 1006.58 1007.60 1008.61 1009.50 1010.27 1010.67 1011.20 1011.72 1012.26 1012.78 1013.26 1013.56 1013.96 1014.29 1014.50 1014.56 1014.46 1014.20 1014.68 1014.71 1014.47 1014.83 1015.67 1015.87 1016.00 1015.29
998.21 999.51 1000.62 1001.60 1002.84 1004.02 1005.48 1006.42 1007.49 1008.60 1009.65 1010.16 1010.60 1011.31 1011.92 1012.54 1012.91 1013.41 1013.86 1014.27 1014.69 1014.68 1014.59 1014.64 1014.28 1014.69 1014.71 1015.18 1014.83 1015.35 1015.59 1015.86 1015.01
998.12 999.27 1000.39 1001.63 1002.85 1003.86 1005.10 1006.34 1007.41 1008.34 1009.54 1010.09 1010.67 1011.26 1012.04 1012.70 1013.25 1013.76 1014.27 1014.58 1014.62 1014.60 1014.54 1014.58 1014.82 1015.09 1014.94 1014.74 1014.96 1015.22 1015.70 1015.94 1015.64
998.80 999.54 1000.63 1001.87 1002.93 1004.07 1005.38 1006.42 1007.24 1008.22 1009.45 1010.26 1011.19 1011.87 1012.52 1013.10 1013.72 1013.58 1014.02 1014.34 1014.60 1014.67 1014.40 1014.47 1014.71 1014.90 1014.59 1014.19 1014.83 1015.61 1015.94 1016.14 1016.11
999.48 1000.42 1001.47 1002.30 1003.28 1004.47 1005.30 1006.24 1007.06 1008.51 1009.92 1010.94 1011.68 1012.08 1012.84 1013.34 1013.78 1013.84 1014.06 1014.09 1014.34 1014.28 1014.26 1013.99 1014.16 1014.13 1013.71 1013.42 1013.83 1014.55 1015.52 1016.01 1016.17
999.92 1000.98 1001.91 1002.49 1003.73 1004.74 1005.49 1006.25 1007.35 1008.61 1009.69 1010.68 1011.51 1012.41 1013.01 1013.31 1013.33 1013.63 1013.80 1013.64 1013.76 1013.51 1013.46 1013.75 1013.94 1013.84 1013.57 1013.51 1013.91 1014.01 1014.62 1014.80 1015.02
1000.18 1001.11 1002.15 1003.11 1004.36 1005.52 1006.58 1007.30 1008.09 1009.31 1009.52 1010.16 1010.78 1011.97 1012.70 1012.93 1013.13 1013.36 1013.67 1013.73 1013.95 1013.80 1014.25 1014.45 1014.30 1014.08 1013.91 1014.16 1013.93 1015.05 1015.61 1015.70 1015.18
1001.21 1002.63 1003.36 1004.11 1005.84 1006.76 1007.65 1008.47 1008.02 1009.18 1009.88 1009.20 1010.23 1011.65 1012.32 1012.34 1012.70 1013.21 1013.27 1013.87 1014.38 1014.73 1014.74 1015.27 1015.25 1015.19 1014.98 1014.53 1015.01 1015.15 1015.72 1015.79 1015.68
1003.28 1004.08 1004.85 1005.55 1006.32 1007.06 1007.94 1008.63 1010.60 1010.20 1009.77 1009.62 1010.77 1011.17 1012.05 1012.36 1012.49 1012.61 1013.08 1013.31 1013.33 1013.41 1014.81 1014.94 1014.85 1014.86 1015.22 1015.39 1015.17 1015.15 1015.21 1015.15 1014.96
Wind_Speed
4 6 8 12 11 11 9 12 14 14 15 15 16 16 13 10 7 2 1 2 1 1 3 3 6 7 7 5 5 6 5 3 4
6 7 8 8 9 9 11 13 13 13 15 15 14 13 11 8 6 1 1 4 2 2 2 2 4 5 6 5 4 3 1 2 4
11 11 11 11 10 11 10 12 13 13 13 12 12 10 8 6 5 4 2 5 4 4 3 1 4 4 4 4 4 4 3 2 3
13 14 12 12 11 11 11 10 10 12 12 12 9 7 6 4 2 5 5 5 4 5 4 5 4 4 5 5 5 4 4 4 3
13 13 12 12 13 12 10 10 10 10 10 9 7 6 4 4 6 6 7 7 6 4 5 6 4 4 4 5 5 4 4 5 6
12 14 15 13 13 11 10 11 12 11 11 11 11 10 10 10 10 9 8 6 6 6 5 4 4 5 5 5 5 4 5 5 5
14 14 15 14 12 11 13 13 13 12 12 12 12 11 10 10 10 8 8 7 6 6 5 5 5 5 5 5 5 5 5 5 6
15 16 17 16 15 14 14 14 13 12 12 12 12 11 10 10 9 8 7 6 5 5 4 5 4 4 4 2 2 5 4 5 5
16 17 18 18 19 18 17 16 15 14 13 13 12 12 12 11 9 8 7 6 5 4 4 4 4 4 5 5 6 7 8 5 5
19 18 19 20 21 20 18 18 17 16 15 14 13 12 12 11 10 8 7 6 5 4 4 4 4 4 4 5 6 5 5 6 5
20 19 20 21 20 19 18 17 16 16 15 14 13 12 12 11 9 8 7 5 4 4 4 3 4 4 4 4 6 3 2 4 2
18 19 19 19 19 20 19 18 17 16 15 14 13 13 11 10 8 7 7 6 5 4 4 4 5 4 4 4 6 2 3 6 5
18 18 18 19 21 20 19 19 19 18 16 15 13 12 11 9 8 7 7 6 5 4 4 4 2 4 4 2 4 5 1 6 8
14 17 20 21 21 19 20 19 19 18 16 14 13 13 11 10 9 8 7 6 6 5 4 4 2 2 3 3 1 4 4 1 8
13 18 20 21 19 18 18 19 17 16 12 12 12 12 11 10 9 7 8 7 6 4 4 4 4 5 6 5 1 3 5 1 4
13 15 17 18 17 19 18 18 16 15 13 14 13 12 10 10 9 7 7 7 6 6 5 4 4 3 3 2 1 2 9 6 6
12 14 16 16 18 18 18 15 13 17 16 15 12 11 9 9 8 7 6 6 5 3 3 2 1 2 3 4 3 2 4 5 8
10 13 14 15 15 11 13 15 17 17 17 14 13 11 9 8 7 7 6 1 1 2 4 5 4 4 4 5 4 7 5 6 8
7 8 8 9 12 14 12 10 15 15 10 11 14 11 8 7 7 7 6 7 6 4 7 3 2 2 4 1 3 2 6 8 9
8 9 10 12 14 15 14 14 6 9 13 14 12 9 8 7 5 6 5 4 4 6 6 9 10 8 7 7 11 7 10 12 11
Wind_Direction
147 179 178 194 188 190 180 175 180 179 182 187 190 195 201 208 210 226 323 302 186 177 260 337 350 336 323 295 276 267 267 292 274
154 137 139 152 161 151 158 167 176 176 181 187 191 188 200 201 194 114 56 119 126 148 153 32 27 17 15 23 23 5 354 32 357
133 135 141 145 140 145 148 146 161 166 173 176 188 190 195 190 175 192 158 132 58 8 340 36 36 41 55 63 42 48 28 59 43
146 143 141 141 140 139 132 132 142 146 161 162 170 179 192 170 163 179 136 95 73 77 76 67 64 52 47 47 63 62 64 70 28
144 142 144 144 136 131 132 135 134 131 135 139 155 171 169 173 159 122 118 115 103 95 103 89 83 68 70 69 54 56 64 55 58
150 151 154 153 145 141 146 142 134 135 133 136 141 158 151 135 126 121 113 114 107 109 101 81 92 92 71 58 62 66 67 66 54
156 158 161 165 159 154 147 138 141 142 145 143 145 148 139 125 112 124 132 120 121 118 114 112 95 81 79 76 67 57 49 54 52
165 162 163 160 152 159 153 151 148 149 147 146 147 140 131 120 118 116 116 111 108 108 122 96 119 120 98 91 65 38 39 56 50
181 171 166 161 154 162 160 156 157 156 154 149 147 144 136 133 134 131 121 124 116 113 105 113 101 72 70 43 60 45 34 35 78
189 178 169 163 166 166 164 162 160 159 154 153 154 147 141 141 142 142 135 123 136 131 108 108 87 74 72 77 93 74 55 342 73
192 180 169 166 165 165 163 162 161 151 155 156 153 152 149 147 146 131 127 135 135 136 136 124 96 96 95 109 102 119 93 315 327
189 180 171 169 164 160 161 161 156 154 157 159 160 158 154 151 150 148 147 159 156 162 159 140 141 146 136 130 120 91 250 286 303
177 173 169 166 160 155 159 158 157 159 164 165 164 159 156 154 154 161 161 157 171 145 141 131 144 190 166 90 126 98 320 244 290
172 166 162 159 157 159 160 159 160 163 163 168 159 156 151 154 152 150 155 156 150 155 176 114 148 189 165 190 115 95 81 312 283
171 163 158 160 158 156 156 161 163 159 158 147 142 145 146 144 155 164 149 148 157 170 150 163 199 228 235 178 238 75 136 111 341
168 166 162 163 154 152 158 162 158 150 129 142 146 140 144 153 157 145 148 160 171 186 184 270 237 254 291 314 110 200 155 205 241
168 164 175 161 152 158 156 151 148 136 145 145 140 140 152 156 156 158 175 182 184 201 184 184 241 301 333 360 319 306 318 264 211
176 168 170 155 159 147 140 129 128 145 148 150 131 152 162 164 148 188 155 80 37 124 49 6 345 19 346 340 346 44 350 315 317
158 121 154 130 129 133 127 133 144 147 148 131 137 152 168 166 153 169 175 163 160 59 74 135 102 71 346 16 229 249 285 279 277
136 143 122 127 131 130 114 116 118 155 147 134 150 149 143 155 189 171 169 190 204 173 184 205 192 199 232 239 288 278 272 273 263